Location: Pallagorio
(39.3000°N, 16.9000°E)
Time: 19:04:34
(UTC+00:00)

MOS 1 Rocket - Pass Details

Date: 24 January 2021
Orbit: 614 x 830 km, 97.4° (Epoch: 03 March)

Event Time Altitude Azimuth Distance (km) Brightness Sun altitude
Rises 17:02:23 0° 13° (NNE) 2,897 6.2 -11.5°
Reaches altitude 10° 17:04:35 10° 15° (NNE) 1,982 5.4 -11.9°
Maximum altitude 17:08:51 78° 100° (E) 635 3.0 -12.7°
Drops below altitude 10° 17:13:10 10° 188° (S) 1,992 5.9 -13.5°
Sets 17:15:23 0° 190° (S) 2,914 6.8 -13.9°
